Weather Roundup
Issued by NWS Chicago, IL

Home | Current Version | Previous Version | Text Only | Print | Product List | Glossary On
Versions: 1 2 3 4 5 6 7 8 9 10 11 12 13 14 15 16 17 18 19 20 21 22 23 24 25 26 27 28 29 30 31 32 33 34 35 36 37 38 39 40 41 42 43 44 45 46 47 48 49 50
000
NZUS59 KLOT 260408
HRRLOT

CHICAGO AREA WEATHER ROUNDUP
NATIONAL WEATHER SERVICE CHICAGO/ROMEOVILLE IL
1100 PM CDT SAT MAR 25 2017

NOTE: "FAIR" INDICATES FEW OR NO CLOUDS BELOW 12,000 FEET WITH NO
SIGNIFICANT WEATHER AND/OR OBSTRUCTIONS TO VISIBILITY.

* THESE STATIONS ARE NOT UNDER NWS QUALITY CONTROL. THEY ALSO MAY NOT
  REPORT WEATHER SUCH AS PRECIPITATION OR FOG.

ILZ005-006-012>014-019>023-260500-
NORTHEAST ILLINOIS

CITY           SKY/WX    TMP DP  RH WIND       PRES   REMARKS
OHARE          LGT RAIN  45  43  93 NE9       29.96F FOG
MIDWAY         CLOUDY    49  48  97 NE6       29.96F FOG
AURORA         LGT RAIN  47  45  93 NE12      29.94F FOG
LANSING*       CLOUDY    53  53 100 SE10      29.96S
JOLIET*        CLOUDY    52  51  99 E8        29.94F FOG
WAUKEGAN       CLOUDY    40  40 100 NE13      30.00S FOG
DUPAGE AIRPORT LGT RAIN  46  46 100 E6        29.95F FOG
WHEELING       CLOUDY    42  42 100 NE8       29.98F FOG
KANKAKEE*      LGT RAIN  56  55  97 E9        29.93F
MORRIS*        CLOUDY    48  47  97 NE5       29.92F FOG
LEWIS AIRPORT* CLOUDY    48  48 100 E10       29.94F FOG
$$

WIZ051-052-058>065-066-070>072-260500-
SOUTHEAST WISCONSIN

CITY           SKY/WX    TMP DP  RH WIND       PRES   REMARKS
MILWAUKEE      DRZL/FOG  39  37  92 NE12      30.04F VSB 1
KENOSHA*       CLOUDY    41  39  93 NE15      30.01F FOG
RACINE*        CLOUDY    39  37  92 NE13      30.05S FOG
WAUKESHA       CLOUDY    36  36 100 E10       30.03F FOG
WEST BEND      CLOUDY    36  36 100 E12       30.05F
$$

INZ001>003-010>013-019-020-260500-
NORTHWEST INDIANA

CITY           SKY/WX    TMP DP  RH WIND       PRES   REMARKS
GARY*          DRIZZLE   54  51  90 SE8G16    29.97S
MICHIGAN CITY* NOT AVBL
RENSSELAER*    NOT AVBL
VALPARAISO     CLOUDY    50  49  96 E13       29.99F FOG
$$

LMZ740>746-260500-
SOUTHERN LAKE MICHIGAN

STATION/POSITION TIME  SKY/WX   TEMP WIND        PRES    VSBY
                                AIR  DIR/SP/G
                 (UTC)          (F)  (DEG/KT/KT) (MB)    (MI)
HARRISON CRIB    0340                 50/  5/  5   N/A
BURNHAM HARBOR   0400            45  350/  5/  6   N/A
CALUMET HARBOR   0348            45   50/  3/  5 1014.2F
BURNS HARBOR     0340            53  120/ 17/ 26 1015.6S
MICHIGAN CITY    0340            50  110/ 13/ 16   N/A
$$

ABBREVIATIONS USED IN REMARKS
   TC - TEMPERATURE IN CELSIUS
  WCI - WIND CHILL INDEX
   HX - HEAT INDEX
  VSB - VISIBILITY
$$



USA.gov is the U.S. government's official web portal to all federal, state and local government web resources and services.